Weather History for Chicago DuPage, IL

Change the Weather History Date:

Sunday, March 2, 2014

  Actual Average Record
Temperature  
Mean Temperature 5 °F 33 °F  
Max Temperature 11 °F 42 °F 56 °F (2008)
Min Temperature -2 °F 24 °F -2 °F (2014)
Degree Days  
Heating Degree Days 60 32  
Month to date heating degree days 105 65  
Since 1 July heating degree days 5881 4820  
Cooling Degree Days 0 0  
Month to date cooling degree days 0 0  
Year to date cooling degree days 0 0  
Moisture  
Dew Point -1 °F    
Average Humidity 71    
Maximum Humidity 85    
Minimum Humidity 52    
Precipitation  
Precipitation 0.01 in 0.07 in 0.41 in (2002)
Year to date precipitation 1.22 2.88  
Sea Level Pressure  
Sea Level Pressure 30.37 in    
Wind  
Wind Speed 11 mph (NNW)    
Max Wind Speed 16 mph    
Max Gust Speed 20 mph    
Visibility 7 miles    
Events Snow    
T = Trace of Precipitation, MM = Missing Value Source: NWS Daily Summary

Daily Weather History Graph

Daily Weather History Graph

Search for Another Location

Airport:

Trip Planner

Search our weather history database for the weather conditions in past years. The results will help you decide how hot, cold, wet, or windy it might be!

Date:

Astronomy

Mar. 02, 2014 Rise Set
Actual Time 6:26 AM CST 5:44 PM CST
Civil Twilight 5:58 AM CST 6:12 PM CST
Nautical Twilight 5:26 AM CST 6:44 PM CST
Astronomical Twilight 4:53 AM CST 7:17 PM CST
Moon 6:55 AM CST (3/2) 7:42 PM CST (3/2)
Length of Visible Light 12h 14m
Length of Day
11h 18m
Waxing Crescent, 3% of the Moon is Illuminated
Mar 2
Waxing Crescent
Mar 8
First Quarter
Mar 16
Full
Mar 23
Last Quarter
Mar 30
New

Hourly Weather History & Observations

Time (CST) Temp. Windchill Dew Point Humidity Pressure Visibility Wind Dir Wind Speed Gust Speed Precip Events Conditions
12:05 AM 10.4 °F -2.4 °F 6.8 °F 85% 30.32 in 1.5 mi North 9.2 mph - 0.00 in Snow Light Snow
12:27 AM 10.4 °F -1.5 °F 6.8 °F 85% 30.33 in 1.0 mi NNW 8.1 mph - 0.01 in Snow Light Snow
12:52 AM 9.0 °F -6.6 °F 5.0 °F 84% 30.38 in 1.2 mi North 12.7 mph - 0.01 in Snow Light Snow
1:04 AM 8.6 °F -5.5 °F 5.0 °F 85% 30.33 in 1.2 mi North 10.4 mph - 0.00 in Snow Light Snow
1:22 AM 8.6 °F -4.7 °F 5.0 °F 85% 30.31 in 2.5 mi North 9.2 mph - 0.00 in Snow Light Snow
1:30 AM 8.6 °F -5.5 °F 5.0 °F 85% 30.32 in 4.0 mi North 10.4 mph - 0.00 in Snow Light Snow
1:39 AM 8.6 °F -4.7 °F 5.0 °F 85% 30.31 in 7.0 mi North 9.2 mph - 0.00 in Snow Light Snow
1:52 AM 9.0 °F -4.2 °F 5.0 °F 84% 30.35 in 10.0 mi North 9.2 mph - 0.00 in   Overcast
2:26 AM 8.6 °F -5.5 °F 5.0 °F 85% 30.32 in 2.5 mi North 10.4 mph - 0.00 in Snow Light Snow
2:41 AM 8.6 °F -3.7 °F 5.0 °F 85% 30.32 in 1.8 mi North 8.1 mph - 0.00 in Snow Light Snow
2:52 AM 9.0 °F -4.2 °F 5.0 °F 84% 30.36 in 1.8 mi North 9.2 mph - 0.00 in Snow Light Snow
2:59 AM 8.6 °F -4.7 °F 5.0 °F 85% 30.31 in 2.0 mi North 9.2 mph - 0.00 in Snow Light Snow
3:09 AM 8.6 °F -6.3 °F 5.0 °F 85% 30.31 in 2.5 mi North 11.5 mph - 0.00 in Snow Light Snow
3:32 AM 8.6 °F -7.0 °F 3.2 °F 79% 30.31 in 4.0 mi North 12.7 mph - 0.00 in Snow Light Snow
3:52 AM 8.1 °F -9.0 °F 1.9 °F 76% 30.36 in 4.0 mi North 15.0 mph - 0.00 in Snow Light Snow
4:06 AM 8.6 °F -8.3 °F 1.4 °F 73% 30.31 in 2.0 mi North 15.0 mph - 0.00 in Snow Light Snow
4:13 AM 8.6 °F -7.0 °F 3.2 °F 79% 30.32 in 2.0 mi North 12.7 mph - 0.00 in Snow Light Snow
4:29 AM 8.6 °F -6.3 °F 3.2 °F 79% 30.33 in 4.0 mi North 11.5 mph - 0.00 in Snow Light Snow
4:38 AM 8.6 °F -7.7 °F 1.4 °F 73% 30.33 in 7.0 mi North 13.8 mph - 0.00 in Snow Light Snow
4:52 AM 8.1 °F -8.4 °F 1.0 °F 73% 30.38 in 10.0 mi North 13.8 mph - 0.00 in   Overcast
5:52 AM 7.0 °F -8.3 °F -0.9 °F 70% 30.38 in 10.0 mi North 11.5 mph - N/A   Overcast
6:52 AM 7.0 °F -8.3 °F -0.9 °F 70% 30.39 in 10.0 mi NNW 11.5 mph - N/A   Overcast
7:52 AM 6.1 °F -10.2 °F -2.9 °F 67% 30.41 in 10.0 mi NNW 12.7 mph - N/A   Overcast
8:52 AM 7.0 °F -8.3 °F -2.9 °F 64% 30.42 in 10.0 mi North 11.5 mph - N/A   Overcast
9:52 AM 7.0 °F -9.1 °F -2.9 °F 64% 30.42 in 10.0 mi NNW 12.7 mph - N/A   Overcast
10:52 AM 9.0 °F -6.6 °F -2.0 °F 61% 30.42 in 10.0 mi NW 12.7 mph - N/A   Overcast
11:52 AM 9.0 °F -5.9 °F -2.0 °F 61% 30.43 in 10.0 mi NW 11.5 mph - N/A   Clear
12:52 PM 10.0 °F -5.9 °F -0.9 °F 61% 30.40 in 10.0 mi NNW 13.8 mph - N/A   Clear
1:52 PM 10.0 °F -5.2 °F -2.0 °F 58% 30.38 in 10.0 mi NNW 12.7 mph - N/A   Clear
2:52 PM 9.0 °F -7.3 °F -2.9 °F 59% 30.40 in 10.0 mi NW 13.8 mph - N/A   Clear
3:52 PM 9.0 °F -5.9 °F -2.9 °F 59% 30.39 in 10.0 mi North 11.5 mph - N/A   Clear
4:52 PM 7.0 °F -9.1 °F -6.0 °F 55% 30.41 in 10.0 mi NNW 12.7 mph - N/A   Clear
5:52 PM 5.0 °F -10.0 °F -8.0 °F 55% 30.42 in 10.0 mi NNW 10.4 mph - N/A   Clear
6:52 PM 3.9 °F -11.3 °F -9.9 °F 53% 30.44 in 10.0 mi NNW 10.4 mph - N/A   Clear
7:52 PM 3.0 °F -10.5 °F -11.0 °F 52% 30.43 in 10.0 mi NNW 8.1 mph - N/A   Clear
8:52 PM -0.0 °F -9.9 °F -11.9 °F 57% 30.45 in 10.0 mi NNW 4.6 mph - N/A   Clear
9:52 PM -0.0 °F -13.0 °F -13.0 °F 54% 30.45 in 10.0 mi North 6.9 mph - N/A   Clear
10:52 PM 1.0 °F - -13.0 °F 52% 30.46 in 10.0 mi Calm Calm - N/A   Clear
11:52 PM -0.0 °F -14.2 °F -14.1 °F 52% 30.48 in 10.0 mi NNW 8.1 mph - N/A   Clear